Wind_Speed
8 4 5 4 6 5 12 8 11 7 6 11 8 5 9 14 13 11 20 17 21 20 24 25 27 26 24 23 22 20 21 20 20 19 17 14 12 10 9 8 9 10 9 8 10 9 9 9 9
9 5 3 7 4 5 8 7 9 9 12 13 11 6 7 12 13 22 18 19 19 19 18 21 23 22 21 21 20 21 20 19 18 17 16 13 10 8 7 7 7 7 7 8 8 9 9 9 8
10 7 6 3 5 7 9 7 10 12 10 5 5 10 6 11 20 16 19 19 17 14 14 17 17 18 20 20 19 18 18 19 18 17 13 10 8 7 6 5 5 6 6 7 7 8 8 8 8
6 4 6 1 10 6 9 9 13 12 8 4 10 12 14 14 13 15 19 17 16 14 13 17 17 18 18 18 17 19 19 18 17 14 11 10 9 6 4 4 4 5 5 7 8 9 8 7 7
4 4 3 9 10 8 10 11 11 8 8 9 11 12 15 10 15 20 19 17 17 16 15 16 17 17 18 19 21 20 17 16 14 12 11 9 6 4 4 3 3 3 5 6 7 8 8 7 7
7 6 5 10 12 9 9 9 8 7 10 10 19 21 10 16 20 19 18 18 17 16 16 16 17 17 18 19 20 16 13 13 13 10 8 7 5 4 2 1 2 3 5 6 6 7 7 7 7
6 7 8 10 11 10 10 9 6 9 11 10 18 13 15 20 19 20 19 19 17 16 18 16 15 16 17 17 16 13 12 12 10 8 8 7 5 3 0 1 2 4 5 5 6 5 7 8 7
7 5 5 6 7 12 10 9 9 9 8 15 12 7 17 23 22 21 20 19 17 16 15 16 16 15 15 15 15 12 11 10 9 9 8 6 4 1 3 4 3 4 5 5 5 5 5 6 6
5 7 4 5 5 10 15 10 9 7 14 9 7 11 22 25 24 22 21 19 18 16 16 14 14 15 14 12 12 12 11 11 10 9 7 5 2 3 3 4 3 2 4 5 4 4 5 4 8
10 8 3 5 7 13 15 10 12 10 15 13 10 16 25 26 25 24 22 21 19 17 15 17 16 15 15 12 11 10 9 8 7 7 8 5 6 5 3 4 2 4 5 4 7 6 7 8 3
10 10 3 5 8 17 16 11 11 9 13 15 15 22 28 26 24 23 21 20 20 18 17 17 17 16 15 13 11 9 9 9 8 9 8 6 5 4 3 4 4 3 8 3 5 5 2 1 2
9 3 1 7 11 16 16 15 10 12 8 13 14 25 27 25 24 23 21 21 20 19 18 17 17 17 16 13 12 11 11 10 9 8 9 7 5 5 4 4 4 4 3 5 5 4 4 4 7
12 5 5 4 12 13 15 14 10 14 4 14 18 27 27 25 23 22 20 19 19 19 18 18 18 17 16 17 13 13 12 11 10 9 9 8 7 7 6 6 5 6 5 6 6 5 7 7 8
11 6 3 7 13 14 14 15 12 13 8 18 23 26 26 25 24 21 21 21 20 19 19 18 18 18 17 16 16 14 12 12 12 11 11 11 8 9 10 8 7 8 7 8 7 7 9 8 8
8 9 6 9 14 11 15 13 13 17 15 18 23 25 24 24 24 23 22 22 21 20 19 19 19 19 18 18 16 15 13 12 12 11 12 13 13 13 11 8 10 8 10 9 8 8 8 9 9
13 11 10 11 15 10 17 14 16 19 19 19 23 24 24 24 24 22 22 21 20 20 21 20 18 19 19 18 17 15 13 12 12 15 13 15 13 13 13 11 10 9 11 9 8 7 7 9 9
13 14 15 11 16 10 15 7 18 19 20 20 22 24 24 23 23 22 22 21 20 20 20 20 20 19 19 19 16 15 15 15 12 15 14 12 12 11 11 12 10 12 10 8 6 6 9 11 10
17 18 16 13 16 12 16 9 4 18 22 21 22 23 24 25 26 24 24 22 20 19 19 19 19 19 18 16 17 15 15 14 13 13 13 14 13 10 11 9 9 11 8 5 6 10 11 9 7
15 15 15 14 14 16 15 14 11 13 19 21 24 25 26 27 25 25 25 24 22 21 20 21 21 21 19 17 15 15 14 14 12 12 13 13 13 14 13 10 10 9 5 6 8 9 10 6 7
18 18 17 13 9 15 13 15 13 14 19 22 25 26 27 26 26 26 26 26 26 24 24 23 25 24 23 18 16 14 12 13 13 11 13 12 11 11 10 11 9 8 6 7 6 7 6 6 5
21 20 18 14 12 15 9 14 15 16 19 20 25 27 29 29 28 29 30 29 28 27 26 26 27 27 27 23 18 16 15 14 12 12 11 11 10 10 9 8 7 9 5 7 8 6 6 4 5
23 21 18 16 14 13 14 11 13 16 18 19 25 29 31 31 30 29 30 31 31 30 27 27 29 30 29 29 24 21 16 13 11 9 9 8 9 8 8 9 9 9 6 9 6 6 3 3 4
23 17 17 18 18 17 14 9 13 5 14 18 25 30 32 31 31 32 32 32 33 30 29 27 30 31 30 29 29 24 21 16 13 11 11 8 10 10 10 11 12 12 7 8 8 8 4 3 1
20 12 15 18 16 19 21 14 14 13 15 16 18 29 33 34 32 31 30 30 31 31 31 29 30 32 32 31 29 31 26 20 15 15 11 10 10 11 14 14 14 13 9 8 7 7 5 3 4
21 18 12 15 15 15 20 16 16 9 12 14 14 23 30 32 33 33 32 32 32 33 32 32 33 33 34 34 31 31 31 26 21 18 13 11 10 10 12 14 14 11 10 10 8 8 6 5 4
28 26 15 25 16 14 18 16 19 19 24 24 19 14 21 31 35 36 37 36 35 35 35 34 35 35 35 35 34 33 32 25 21 18 14 12 11 10 14 12 14 13 12 12 10 7 6 8 7
28 27 25 23 20 17 18 15 22 14 17 19 19 18 20 26 34 39 38 39 38 37 39 40 39 36 36 37 36 36 35 30 21 20 19 17 16 12 16 13 13 13 13 13 11 7 9 10 8
28 23 24 21 25 23 21 21 13 17 19 19 17 16 21 24 28 34 39 41 40 38 37 38 39 38 36 37 39 37 35 33 29 28 25 21 19 17 16 14 12 14 14 13 13 10 11 11 9
21 20 25 23 22 18 18 18 16 14 13 12 12 15 17 17 25 30 36 39 41 38 36 36 37 38 37 37 39 39 38 35 34 32 29 26 21 18 17 13 7 14 16 14 15 14 13 13 11
25 25 27 18 25 20 21 17 18 20 18 24 25 20 14 14 17 24 30 34 38 40 38 35 35 36 39 38 39 40 41 40 39 36 32 30 25 20 19 11 16 16 21 18 16 16 13 13 12
Wind_Direction
227 136 190 230 209 165 138 156 135 137 106 85 81 103 79 21 16 89 128 130 122 121 128 129 132 133 133 132 133 135 138 138 138 133 134 131 127 114 101 86 76 71 68 61 54 45 38 42 38
182 192 278 275 247 131 93 116 116 75 99 115 104 135 51 68 90 121 127 133 128 126 130 138 136 137 134 133 133 135 134 137 136 136 132 133 135 115 90 83 74 69 66 55 44 37 34 35 36
185 199 262 288 324 67 103 118 108 112 129 137 103 68 57 104 119 123 140 140 136 134 136 142 143 142 140 139 135 131 136 136 139 141 140 138 128 115 100 89 79 67 58 44 25 25 28 25 22
174 220 244 40 93 75 102 115 129 130 118 110 110 91 92 123 126 137 140 143 142 136 132 138 138 137 140 136 135 140 139 141 145 147 140 131 125 115 109 95 80 61 46 23 13 16 18 16 22
190 243 170 77 80 87 112 117 149 121 113 124 119 116 108 131 137 140 141 141 139 138 136 137 136 138 141 145 147 141 139 141 142 140 138 137 129 120 114 98 58 53 26 9 12 15 19 18 22
220 254 101 90 105 108 121 140 140 120 124 116 121 124 101 133 138 143 141 137 142 144 139 145 143 142 142 149 147 143 142 144 141 139 147 150 143 131 116 45 44 27 7 7 14 6 20 28 35
281 258 78 96 111 135 140 150 158 132 140 137 140 122 135 146 149 147 145 145 146 147 149 146 148 151 152 155 156 156 156 156 156 160 160 159 155 159 317 341 15 353 354 2 15 26 36 50 59
267 274 174 123 140 114 138 152 129 144 117 136 148 153 158 155 151 150 151 149 150 155 149 154 156 155 152 156 163 170 171 171 173 169 166 165 176 175 42 28 338 351 20 18 23 16 24 49 42
248 251 170 132 151 128 152 143 151 127 144 157 147 151 155 155 153 155 155 157 161 162 158 161 159 162 161 162 168 165 166 173 178 176 178 189 162 249 281 287 341 4 1 5 0 356 7 20 12
228 278 69 120 121 143 160 155 150 162 156 152 141 139 154 157 161 163 164 166 168 171 166 169 171 173 167 168 182 174 181 185 184 198 214 202 229 237 249 269 307 353 5 20 10 19 34 34 360
209 281 96 152 156 144 160 156 155 162 176 172 161 159 162 164 168 170 171 174 173 174 172 179 179 182 179 185 185 194 199 201 211 205 202 220 228 254 250 284 324 310 320 7 345 337 360 304 341
239 239 227 135 167 162 164 154 159 166 149 172 171 168 166 170 174 176 177 179 179 180 179 182 188 189 190 200 201 203 206 207 205 218 216 225 235 250 238 244 252 321 284 317 314 302 295 324 310
230 187 247 190 174 175 159 167 150 171 163 171 165 168 173 178 181 183 183 183 183 186 187 190 192 196 197 202 205 205 208 218 219 221 226 220 227 239 242 252 279 286 297 298 315 309 303 296 300
216 244 185 208 177 179 178 163 168 175 158 163 171 175 180 183 185 185 189 191 193 193 195 195 198 202 202 205 209 211 214 218 224 227 226 223 229 242 255 268 284 277 273 275 295 306 307 313 307
188 189 168 183 168 172 188 177 209 161 161 166 178 182 186 190 190 193 195 197 198 200 199 200 200 203 206 208 212 214 218 222 225 227 233 230 240 246 257 267 270 278 288 292 286 311 312 323 317
199 220 196 163 170 165 194 192 197 169 171 175 180 185 190 194 197 198 200 199 202 200 203 202 204 207 210 211 212 213 217 218 225 230 242 253 257 260 263 272 267 273 272 262 294 316 310 310 307
203 213 215 159 195 163 199 249 164 182 187 182 186 190 194 195 200 202 202 202 203 203 204 204 205 206 209 210 213 217 222 225 225 242 246 254 255 265 269 266 267 268 266 274 286 301 309 310 309
197 232 186 179 192 190 196 209 146 188 198 196 195 198 199 200 204 201 200 202 202 204 203 204 204 205 204 206 215 224 234 235 237 252 245 248 255 255 264 267 262 279 270 278 279 307 308 314 318
218 207 207 201 161 202 209 217 200 197 213 212 203 203 204 207 206 205 203 203 203 205 206 207 205 205 202 209 212 219 232 245 246 245 259 260 263 258 251 259 267 266 276 254 298 314 317 325 312
233 218 218 165 175 214 211 232 223 209 215 218 215 209 212 212 208 207 207 207 208 209 210 211 213 214 214 214 217 220 232 240 245 258 257 264 257 249 243 237 255 249 262 290 296 316 311 317 320
223 228 220 198 181 221 249 241 231 219 212 221 222 220 215 216 213 210 209 210 211 212 213 214 220 221 221 216 225 230 232 236 251 261 270 271 254 252 251 248 228 257 266 293 306 314 321 311 317
219 220 230 212 188 222 199 249 208 208 205 218 218 217 218 215 217 217 215 213 212 214 215 217 224 226 226 226 220 223 226 235 243 249 255 245 244 233 234 240 254 248 259 267 290 308 287 343 316
228 221 226 235 210 238 180 245 258 195 228 213 218 215 216 216 215 215 215 215 214 213 215 217 223 227 226 227 225 227 234 235 236 234 240 242 230 221 220 233 248 260 272 270 266 291 268 288 242
219 236 233 233 233 226 228 209 239 215 224 233 222 217 214 211 212 214 214 212 213 212 213 215 221 225 226 226 228 229 228 224 222 227 231 231 229 232 233 233 241 250 253 265 281 272 266 228 230
210 209 206 217 221 232 213 233 232 247 222 228 238 212 217 215 211 209 208 207 208 209 210 213 218 225 223 224 226 227 231 231 227 228 232 229 231 227 236 236 244 246 260 260 268 276 254 272 266
209 211 219 214 220 221 237 230 233 242 259 267 260 246 209 214 214 212 209 207 208 209 210 212 218 225 224 223 225 226 229 227 229 233 223 227 232 236 232 238 247 251 251 250 259 253 257 261 265
202 218 226 241 224 234 224 216 248 242 260 261 253 232 224 212 213 214 212 210 208 210 212 218 221 225 227 225 226 228 230 229 221 219 225 228 225 223 236 239 246 254 247 248 253 239 255 253 262
228 206 220 229 232 227 240 232 222 224 231 238 237 230 227 221 217 216 215 212 209 209 212 216 224 227 227 226 229 228 229 232 228 237 239 232 238 236 237 237 248 250 247 253 258 244 255 244 254
209 230 215 231 227 239 227 235 220 240 242 242 245 226 233 232 222 218 215 213 212 209 210 212 218 224 225 227 230 228 228 227 230 230 235 231 237 234 224 217 255 256 255 256 252 247 239 247 252
210 215 215 224 222 234 249 242 225 224 232 247 248 255 276 255 233 223 215 210 208 210 209 211 213 215 222 224 228 229 231 230 230 230 233 228 226 228 216 216 248 239 259 250 241 248 242 249 251
Height
1510 1512 1517 1517 1516 1507 1514 1517 1507 1512 1514 1519 1522 1525 1525 1526 1523 1538 1547 1549 1549 1551 1553 1554 1556 1558 1559 1561 1563 1564 1566 1568 1570 1572 1574 1576 1578 1579 1579 1580 1580 1580 1580 1581 1580 1581 1580 1580 1579
1513 1514 1516 1510 1500 1502 1508 1505 1508 1512 1519 1523 1524 1524 1526 1533 1536 1542 1548 1552 1554 1556 1557 1558 1559 1561 1562 1564 1565 1567 1568 1571 1572 1575 1576 1578 1580 1580 1582 1582 1582 1582 1582 1582 1582 1582 1582 1581 1580
1515 1516 1513 1495 1492 1502 1507 1506 1511 1519 1522 1522 1525 1528 1531 1540 1543 1546 1550 1554 1556 1557 1559 1559 1561 1562 1564 1566 1568 1569 1571 1573 1575 1577 1578 1580 1581 1582 1583 1584 1584 1584 1584 1583 1583 1583 1582 1581 1580
1516 1517 1510 1496 1506 1506 1505 1509 1516 1520 1523 1525 1526 1532 1539 1543 1546 1549 1552 1556 1558 1560 1561 1561 1563 1564 1566 1568 1570 1572 1574 1575 1577 1578 1579 1581 1582 1583 1584 1585 1585 1585 1585 1585 1585 1584 1583 1582 1581
1515 1510 1494 1501 1508 1506 1507 1513 1515 1516 1522 1525 1527 1533 1540 1546 1548 1551 1554 1557 1560 1563 1563 1563 1565 1567 1569 1570 1573 1574 1575 1577 1579 1580 1582 1583 1584 1585 1586 1586 1586 1586 1585 1585 1585 1584 1584 1583 1582
1509 1504 1494 1505 1510 1510 1512 1516 1516 1518 1524 1528 1531 1535 1544 1548 1551 1554 1557 1560 1562 1564 1565 1566 1568 1569 1571 1573 1574 1576 1577 1579 1580 1582 1583 1585 1586 1587 1587 1587 1587 1586 1586 1586 1585 1584 1583 1582 1582
1507 1494 1496 1498 1508 1510 1513 1517 1516 1520 1524 1528 1531 1534 1546 1549 1552 1556 1559 1562 1564 1566 1567 1569 1570 1571 1573 1575 1576 1578 1579 1581 1582 1584 1585 1586 1586 1587 1587 1587 1587 1587 1587 1586 1586 1585 1584 1583 1582
1506 1496 1494 1494 1502 1510 1514 1516 1520 1522 1525 1530 1533 1536 1543 1548 1552 1557 1560 1563 1566 1568 1568 1571 1573 1575 1575 1576 1578 1579 1581 1582 1583 1584 1586 1587 1587 1588 1588 1588 1588 1588 1587 1587 1586 1585 1584 1584 1583
1508 1494 1494 1499 1499 1507 1514 1516 1521 1524 1528 1531 1534 1535 1542 1547 1552 1557 1560 1563 1566 1568 1570 1573 1574 1576 1578 1580 1579 1580 1581 1583 1584 1585 1586 1587 1591 1590 1590 1589 1588 1587 1587 1587 1586 1585 1584 1584 1584
1502 1489 1489 1490 1493 1501 1511 1513 1520 1523 1528 1531 1535 1538 1543 1548 1552 1555 1559 1562 1566 1568 1570 1574 1576 1577 1579 1581 1580 1582 1583 1585 1586 1587 1587 1588 1590 1589 1589 1588 1588 1587 1587 1587 1586 1586 1585 1585 1587
1495 1490 1489 1493 1496 1501 1509 1513 1518 1520 1524 1528 1533 1538 1543 1547 1552 1555 1559 1562 1565 1568 1570 1573 1575 1576 1578 1581 1581 1584 1585 1586 1586 1586 1587 1588 1589 1590 1590 1590 1590 1590 1588 1589 1587 1587 1586 1586 1586
1494 1493 1492 1493 1499 1500 1506 1511 1516 1520 1521 1527 1532 1538 1543 1547 1550 1554 1557 1560 1563 1566 1569 1572 1573 1574 1576 1580 1580 1583 1584 1585 1586 1587 1585 1586 1588 1588 1588 1589 1589 1587 1588 1587 1588 1587 1585 1586 1585
1492 1491 1493 1495 1499 1500 1505 1510 1513 1519 1523 1526 1532 1537 1542 1546 1549 1553 1556 1560 1562 1565 1567 1569 1572 1573 1575 1576 1580 1581 1583 1584 1585 1585 1585 1586 1587 1587 1587 1588 1587 1587 1587 1587 1586 1586 1585 1584 1584
1486 1490 1493 1495 1497 1501 1505 1510 1515 1518 1523 1526 1531 1536 1540 1544 1547 1551 1554 1557 1560 1562 1565 1568 1569 1570 1572 1574 1576 1577 1579 1582 1582 1584 1584 1583 1584 1586 1584 1585 1587 1585 1586 1586 1584 1583 1582 1581 1581
1489 1491 1494 1494 1496 1499 1503 1510 1511 1516 1522 1525 1530 1534 1538 1541 1545 1548 1551 1554 1557 1560 1563 1565 1567 1568 1570 1571 1573 1575 1578 1579 1581 1582 1581 1581 1582 1582 1582 1584 1584 1585 1584 1582 1582 1581 1582 1581 1580
1486 1484 1490 1492 1496 1499 1502 1501 1506 1514 1519 1523 1528 1532 1535 1539 1542 1545 1548 1551 1554 1558 1560 1562 1565 1567 1568 1569 1571 1573 1576 1578 1579 1578 1579 1579 1580 1580 1580 1582 1582 1583 1582 1582 1580 1579 1580 1579 1578
1479 1484 1481 1492 1493 1498 1500 1496 1501 1511 1515 1520 1525 1528 1532 1535 1539 1542 1545 1549 1552 1554 1557 1559 1561 1564 1565 1567 1570 1572 1573 1574 1576 1577 1576 1577 1577 1578 1578 1579 1581 1579 1580 1579 1579 1579 1578 1577 1575
1478 1480 1472 1482 1490 1493 1495 1494 1501 1508 1510 1513 1519 1524 1527 1530 1533 1537 1541 1545 1549 1552 1554 1556 1559 1561 1563 1566 1567 1569 1570 1572 1573 1574 1574 1573 1574 1576 1576 1577 1577 1576 1578 1578 1579 1577 1576 1574 1573
1460 1469 1472 1469 1476 1488 1488 1492 1492 1503 1506 1507 1511 1517 1521 1524 1529 1534 1538 1542 1545 1548 1550 1553 1555 1558 1561 1563 1566 1568 1569 1569 1571 1572 1571 1571 1571 1571 1573 1575 1575 1574 1575 1576 1576 1576 1575 1573 1571
1461 1466 1468 1465 1477 1484 1480 1487 1487 1492 1500 1503 1505 1509 1515 1519 1523 1528 1533 1537 1540 1543 1546 1549 1551 1554 1557 1561 1563 1565 1567 1569 1570 1570 1570 1567 1569 1569 1570 1571 1574 1573 1575 1573 1573 1572 1573 1572 1570
1463 1464 1463 1466 1476 1479 1478 1483 1481 1482 1491 1496 1499 1502 1507 1512 1516 1521 1526 1530 1534 1538 1541 1544 1546 1550 1553 1556 1559 1561 1563 1564 1566 1567 1568 1568 1567 1568 1568 1570 1572 1572 1573 1574 1572 1572 1571 1571 1570
1464 1454 1457 1461 1475 1488 1475 1490 1468 1469 1479 1486 1490 1494 1498 1503 1509 1514 1519 1523 1527 1532 1536 1538 1541 1545 1547 1550 1554 1557 1560 1562 1564 1565 1565 1565 1565 1566 1567 1568 1569 1569 1571 1570 1570 1570 1569 1569 1571
1456 1450 1459 1457 1467 1471 1474 1487 1465 1460 1469 1471 1478 1483 1489 1494 1500 1505 1509 1514 1520 1525 1529 1532 1535 1539 1542 1545 1549 1552 1554 1558 1560 1561 1561 1560 1561 1562 1563 1565 1566 1568 1569 1568 1567 1566 1566 1568 1568
1453 1456 1460 1457 1460 1479 1464 1475 1469 1459 1464 1460 1466 1474 1480 1484 1490 1497 1503 1508 1513 1518 1522 1526 1527 1531 1536 1539 1542 1545 1549 1553 1556 1557 1558 1559 1560 1559 1560 1560 1561 1563 1565 1566 1567 1566 1565 1564 1566
1452 1459 1479 1484 1479 1477 1449 1468 1463 1445 1446 1452 1454 1461 1471 1479 1484 1488 1494 1500 1505 1509 1514 1518 1521 1524 1529 1533 1536 1539 1543 1547 1550 1553 1554 1558 1559 1559 1558 1560 1561 1560 1561 1563 1565 1567 1567 1566 1567
1444 1445 1458 1485 1477 1469 1451 1468 1454 1447 1449 1448 1449 1454 1459 1468 1474 1479 1484 1491 1496 1502 1506 1510 1513 1517 1522 1526 1530 1534 1537 1542 1547 1549 1553 1554 1557 1558 1557 1557 1559 1560 1558 1559 1560 1563 1565 1565 1564
1436 1443 1433 1443 1441 1454 1447 1448 1446 1442 1443 1444 1444 1446 1452 1456 1461 1468 1476 1481 1487 1492 1496 1499 1504 1509 1515 1520 1524 1528 1532 1537 1542 1545 1545 1548 1549 1553 1553 1553 1555 1558 1558 1558 1558 1559 1562 1563 1562
1420 1427 1447 1434 1461 1468 1451 1447 1446 1440 1438 1436 1435 1438 1441 1447 1453 1459 1464 1470 1477 1482 1488 1493 1497 1502 1508 1514 1517 1522 1526 1530 1535 1538 1540 1543 1543 1544 1545 1549 1550 1553 1555 1555 1556 1558 1559 1559 1560
1424 1426 1424 1428 1433 1448 1460 1444 1424 1431 1429 1428 1427 1430 1433 1438 1443 1448 1454 1461 1468 1475 1480 1485 1489 1494 1500 1505 1510 1515 1518 1522 1526 1529 1533 1534 1539 1540 1539 1540 1547 1550 1551 1550 1552 1554 1555 1556 1556
1408 1420 1418 1432 1441 1429 1433 1429 1410 1416 1424 1425 1426 1425 1427 1431 1435 1440 1446 1453 1459 1465 1472 1477 1482 1485 1490 1496 1501 1506 1511 1514 1518 1522 1526 1528 1529 1534 1535 1542 1538 1539 1544 1547 1548 1550 1552 1553 1553